Location: Antin
(43.3330°N, 0.2804°E)
Time: 09:46:46
(UTC+00:00)

FENGYUN 1C DEB - Visible Passes

Search period start: 17 August 2022 00:00
Search period end: 27 August 2022 00:00
Orbit: 496 x 688 km, 98.4° (Epoch: 16 August)

Date Brightness Start Highest point End Pass type
(mag) Time Alt. Az. Time Alt. Az. Time Alt. Az.
17 Aug ? 00:03:11 10° NNE 00:05:33 29° NNE 00:05:33 29° NNE visible
17 Aug ? 01:39:58 10° NNW 01:42:08 16° NW 01:42:08 16° NW visible
18 Aug ? 00:11:49 10° NNE 00:14:13 30° NNE 00:14:13 30° NNE visible
18 Aug ? 01:49:06 10° NNW 01:50:48 13° NW 01:50:48 13° NW visible
19 Aug ? 00:20:29 10° NNE 00:22:52 30° NNE 00:22:52 30° NNE visible
19 Aug ? 01:58:30 10° NW 01:59:27 11° NW 01:59:27 11° NW visible
20 Aug ? 00:29:08 10° N 00:31:30 29° N 00:31:30 29° N visible
21 Aug ? 00:37:47 10° N 00:40:06 28° N 00:40:06 28° N visible
21 Aug ? 23:12:00 10° NE 23:12:06 10° NE 23:12:06 10° NE visible
22 Aug ? 00:46:26 10° N 00:48:40 26° N 00:48:40 26° N visible
22 Aug ? 23:20:15 10° NE 23:20:39 12° NE 23:20:39 12° NE visible
23 Aug ? 00:55:05 10° N 00:57:13 24° NNW 00:57:13 24° NNW visible
23 Aug ? 23:28:33 10° NE 23:29:10 13° NE 23:29:10 13° NE visible
24 Aug ? 01:03:45 10° N 01:05:44 22° NNW 01:05:44 22° NNW visible
24 Aug ? 23:36:53 10° NNE 23:37:40 14° NE 23:37:40 14° NE visible
25 Aug ? 01:12:25 10° N 01:14:13 20° NNW 01:14:13 20° NNW visible
25 Aug ? 23:45:14 10° NNE 23:46:08 15° NE 23:46:08 15° NE visible
26 Aug ? 01:21:06 10° NNW 01:22:42 17° NNW 01:22:42 17° NNW visible
